Location: Betpouey
(42.8833°N, 0.0333°E)
Time: 22:05:08
(UTC+00:00)

USA 238 - Pass Details

Date: 01 December 2020
Orbit: 997 x 1215 km, 63.4° (Epoch: 11 January)

Event Time Altitude Azimuth Distance (km) Brightness Sun altitude
Rises 18:49:31 0° 219° (SW) 3,714 7.2 -25.5°
Reaches altitude 10° 18:52:04 10° 220° (SW) 2,780 6.4 -26.0°
Maximum altitude 18:58:36 78° 307° (NW) 1,061 3.6 -27.2°
Enters shadow 19:00:39 48° 23° (NNE) 1,342 3.9 -27.6°
